Location: Devore Heights
(34.2372°N, 117.4156°W)
Time: 09:47:35
(UTC+00:00)

A-11 Canister half - Pass Details

Date: 20 September 2024
Orbit: 1515 x 1684 km, 47.2° (Epoch: 07 October)

Event Time Altitude Azimuth Distance (km) Brightness Sun altitude
Rises 22:15:10 0° 192° (SSW) 4,837 12.1 41.0°
Reaches altitude 10° 22:18:58 10° 180° (S) 3,826 11.6 40.4°
Maximum altitude 22:26:36 27° 128° (SE) 2,682 10.4 39.1°
Drops below altitude 10° 22:34:02 10° 75° (ENE) 3,733 10.7 37.8°
Sets 22:37:39 0° 64° (ENE) 4,698 11.1 37.1°
